Weather History for Valladolid Airport, Spain

Change the Weather History Date:

Monday, December 10, 2012

  Actual Average Record
Temperature  
Mean Temperature 29 °F -  
Max Temperature 32 °F - - ()
Min Temperature 26 °F - - ()
Degree Days  
Heating Degree Days 36    
Moisture  
Dew Point 30 °F    
Average Humidity 100    
Maximum Humidity 100    
Minimum Humidity 100    
Precipitation  
Precipitation 0.00 in - - ()
Sea Level Pressure  
Sea Level Pressure 30.17 in    
Wind  
Wind Speed 2 mph ()    
Max Wind Speed 6 mph    
Max Gust Speed -    
Visibility 0.1 miles    
Events Fog    
T = Trace of Precipitation, MM = Missing Value Source: Averaged Metar Reports

Daily Weather History Graph

Daily Weather History Graph

Search for Another Location

Airport:

Trip Planner

Search our weather history database for the weather conditions in past years. The results will help you decide how hot, cold, wet, or windy it might be!

Date:

Astronomy

Dec. 10, 2012 Rise Set
Actual Time 8:35 AM CET 5:48 PM CET
Civil Twilight 8:04 AM CET 6:20 PM CET
Nautical Twilight 7:29 AM CET 6:55 PM CET
Astronomical Twilight 6:55 AM CET 7:28 PM CET
Moon 5:00 AM CET (12/10) 3:29 PM CET (12/10)
Length of Visible Light 10h 15m
Length of Day
9h 13m
Waning Crescent, 12% of the Moon is Illuminated
Dec 10
Waning Crescent
Dec 13
New
Dec 20
First Quarter
Dec 28
Full
Jan 5
Last Quarter

Hourly Weather History & Observations

Time (CET) Temp. Windchill Dew Point Humidity Pressure Visibility Wind Dir Wind Speed Gust Speed Precip Events Conditions
6:00 AM 26.6 °F - 26.6 °F 100% 30.18 in 0.1 mi Variable 2.3 mph - N/A Fog Light Freezing Fog
6:30 AM 26.6 °F - 26.6 °F 100% 30.18 in 0.1 mi Variable 2.3 mph - N/A Fog Light Freezing Fog
7:00 AM 26.6 °F - 26.6 °F 100% 30.15 in 0.1 mi Variable 2.3 mph - N/A Fog Light Freezing Fog
7:30 AM 26.6 °F - 26.6 °F 100% 30.18 in 0.1 mi Variable 1.2 mph - N/A Fog Light Freezing Fog
8:00 AM 26.6 °F - 26.6 °F 100% 30.18 in 0.1 mi Variable 2.3 mph - N/A Fog Light Freezing Fog
8:30 AM 26.6 °F - 26.6 °F 100% 30.18 in 0.1 mi Variable 2.3 mph - N/A Fog Light Freezing Fog
9:00 AM 26.6 °F - 26.6 °F 100% 30.18 in 0.1 mi Calm Calm - N/A Fog Light Freezing Fog
10:00 AM 26.6 °F - 26.6 °F 100% 30.18 in 0.1 mi Calm Calm - N/A Fog Light Freezing Fog
10:30 AM 28.4 °F - 28.4 °F 100% 30.21 in 0.1 mi Calm Calm - N/A Fog Light Freezing Fog
11:00 AM 28.4 °F - 28.4 °F 100% 30.21 in 0.1 mi Variable 1.2 mph - N/A Fog Light Freezing Fog
11:30 AM 30.2 °F - 30.2 °F 100% 30.21 in 0.1 mi Calm Calm - N/A Fog Light Freezing Fog
12:00 PM 30.2 °F - 30.2 °F 100% 30.21 in 0.1 mi Variable 1.2 mph - N/A Fog Light Freezing Fog
12:30 PM 30.2 °F - 30.2 °F 100% 30.18 in 0.1 mi Variable 1.2 mph - N/A Fog Light Freezing Fog
1:00 PM 30.2 °F - 30.2 °F 100% 30.18 in 0.1 mi Variable 1.2 mph - N/A Fog Light Freezing Fog
1:30 PM 30.2 °F - 30.2 °F 100% 30.18 in 0.1 mi Variable 1.2 mph - N/A Fog Light Freezing Fog
2:00 PM 32.0 °F - 32.0 °F 100% 30.15 in 0.1 mi Variable 2.3 mph - N/A Fog Light Freezing Fog
2:30 PM 32.0 °F 28.7 °F 32.0 °F 100% 30.15 in 0.1 mi ENE 3.5 mph - N/A Fog Light Freezing Fog
3:00 PM 32.0 °F 28.7 °F 32.0 °F 100% 30.15 in 0.1 mi East 3.5 mph - N/A Fog Light Freezing Fog
3:30 PM 32.0 °F - 32.0 °F 100% 30.15 in 0.1 mi Variable 1.2 mph - N/A Fog Light Freezing Fog
4:00 PM 32.0 °F - 32.0 °F 100% 30.15 in 0.1 mi Calm Calm - N/A Fog Light Freezing Fog
4:30 PM 32.0 °F - 32.0 °F 100% 30.15 in 0.1 mi Variable 1.2 mph - N/A Fog Light Freezing Fog
5:00 PM 32.0 °F - 32.0 °F 100% 30.15 in 0.1 mi Calm Calm - N/A Fog Light Freezing Fog
5:30 PM 32.0 °F - 32.0 °F 100% 30.15 in 0.1 mi Variable 1.2 mph - N/A Fog Light Freezing Fog
6:00 PM 32.0 °F - 32.0 °F 100% 30.15 in 0.1 mi Variable 2.3 mph - N/A Fog Fog
6:30 PM 32.0 °F - 32.0 °F 100% 30.15 in 0.1 mi Variable 1.2 mph - N/A Fog Fog
7:00 PM 32.0 °F - 32.0 °F 100% 30.15 in 0.1 mi NE 1.2 mph - N/A Fog Fog
7:30 PM 32.0 °F 28.7 °F 32.0 °F 100% 30.15 in 0.1 mi NE 3.5 mph - N/A Fog Fog
8:00 PM 32.0 °F 28.7 °F 32.0 °F 100% 30.15 in 0.1 mi NNE 3.5 mph - N/A Fog Light Freezing Fog
8:30 PM 32.0 °F 27.5 °F 32.0 °F 100% 30.15 in 0.2 mi NE 4.6 mph - N/A Fog Light Freezing Fog
9:00 PM 30.2 °F 24.3 °F 30.2 °F 100% 30.15 in 0.2 mi NE 5.8 mph - N/A Fog Light Freezing Fog
9:30 PM 30.2 °F 26.7 °F 30.2 °F 100% 30.15 in 0.2 mi ENE 3.5 mph - N/A Fog Light Freezing Fog
10:00 PM 30.2 °F 26.7 °F 30.2 °F 100% 30.15 in 0.1 mi NE 3.5 mph - N/A Fog Light Freezing Fog
10:30 PM 30.2 °F 26.7 °F 30.2 °F 100% 30.15 in 0.1 mi NE 3.5 mph - N/A Fog Light Freezing Fog